| time (UTC) | temp F | wind direction | speed knots | gust knots | rain 1hr in | rain 24hr in | rain mn in | humidity % | barometer mb |
| 20260903023541 | 68 | 0.0 | 0.0 | 0.00 | 0.01 | 0.01 | 100 | 1013.3 | |
| 20260903023040 | 69 | 0.0 | 0.0 | 0.00 | 0.01 | 0.01 | 100 | 1013.2 | |
| 20260903022538 | 69 | 0.0 | 0.0 | 0.00 | 0.01 | 0.01 | 100 | 1013.2 | |
| 20260903022036 | 69 | 0.0 | 0.0 | 0.00 | 0.01 | 0.01 | 8 | 1013.2 | |
| 20260903021536 | 69 | 0.0 | 0.0 | 0.00 | 0.01 | 0.01 | 26 | 1013.2 | |
| 20260903021035 | 70 | 0.0 | 0.0 | 0.00 | 0.01 | 0.01 | 40 | 1013.2 | |
| 20260903020532 | 70 | 0.0 | 0.0 | 0.00 | 0.01 | 0.01 | 49 | 1013.1 | |
| 20260903020032 | 70 | 0.0 | 0.0 | 0.00 | 0.01 | 0.01 | 54 | 1013.0 | |
| 20260903015533 | 70 | 0.0 | 0.0 | 0.00 | 0.01 | 0.01 | 56 | 1013.1 | |
| 20260903015030 | 70 | 0.0 | 0.0 | 0.00 | 0.01 | 0.01 | 57 | 1013.1 | |
| 20260903014527 | 71 | 0.0 | 0.0 | 0.00 | 0.01 | 0.01 | 57 | 1013.2 | |
| 20260903014027 | 71 | 0.0 | 0.0 | 0.00 | 0.01 | 0.01 | 57 | 1013.2 | |
| 20260903013528 | 71 | 0.0 | 0.0 | 0.00 | 0.01 | 0.01 | 56 | 1013.2 | |
| 20260903013023 | 72 | 0.0 | 0.0 | 0.00 | 0.01 | 0.01 | 53 | 1013.3 | |
| 20260903012520 | 72 | 0.0 | 0.0 | 0.00 | 0.01 | 0.01 | 51 | 1013.3 | |
| 20260903012019 | 73 | 0.0 | 0.0 | 0.00 | 0.01 | 0.01 | 52 | 1013.3 | |
| 20260903011519 | 73 | 0.0 | 0.0 | 0.00 | 0.01 | 0.01 | 51 | 1013.3 | |
| 20260903011015 | 74 | 0.0 | 0.0 | 0.00 | 0.01 | 0.01 | 52 | 1013.3 | |
| 20260903010515 | 74 | 0.0 | 0.0 | 0.00 | 0.01 | 0.01 | 52 | 1013.2 | |
| 20260903010014 | 75 | 0.0 | 0.0 | 0.00 | 0.01 | 0.01 | 51 | 1013.3 | |
| 20260903005512 | 75 | 0.0 | 0.0 | 0.00 | 0.01 | 0.01 | 51 | 1013.3 | |
| 20260903000200 | 75 | 0.0 | 0.0 | 0.00 | 0.01 | 0.01 | 50 | 1013.3 | |
| 20260902235556 | 75 | 0.0 | 0.0 | 0.00 | 0.01 | 0.01 | 50 | 1013.2 | |
| 20260902235508 | 75 | 0.0 | 0.0 | 0.00 | 0.01 | 0.01 | 50 | 1013.3 | |
| 20260902234051 | 75 | 0.0 | 0.0 | 0.00 | 0.01 | 0.01 | 50 | 1013.4 | |
| 20260902233651 | 76 | 0.0 | 0.0 | 0.00 | 0.01 | 0.01 | 49 | 1013.5 | |
| 20260902211544 | 76 | 0.0 | 0.0 | 0.00 | 0.01 | 0.01 | 51 | 1014.4 | |
| 20260902211042 | 76 | 0.0 | 0.0 | 0.00 | 0.01 | 0.01 | 50 | 1014.4 | |
| 20260902210541 | 76 | 0.0 | 0.0 | 0.00 | 0.01 | 0.01 | 51 | 1014.5 | |
| 20260902210040 | 76 | 0.0 | 0.0 | 0.00 | 0.01 | 0.01 | 51 | 1014.5 | |
| 20260902205538 | 76 | 0.0 | 0.0 | 0.00 | 0.01 | 0.01 | 51 | 1014.5 | |
| 20260902205037 | 76 | 0.0 | 0.0 | 0.00 | 0.01 | 0.01 | 51 | 1014.5 | |
| 20260902204539 | 76 | 0.0 | 0.0 | 0.00 | 0.01 | 0.01 | 51 | 1014.6 | |
| 20260902204034 | 76 | 0.0 | 0.0 | 0.00 | 0.01 | 0.01 | 51 | 1014.7 | |
| 20260902203532 | 76 | 0.0 | 0.0 | 0.00 | 0.01 | 0.01 | 51 | 1014.7 | |
| 20260902203033 | 76 | 0.0 | 0.0 | 0.00 | 0.01 | 0.01 | 51 | 1014.7 | |
| 20260902202532 | 77 | 0.0 | 0.0 | 0.00 | 0.01 | 0.01 | 51 | 1014.6 | |
| 20260902202031 | 77 | 0.0 | 0.0 | 0.00 | 0.01 | 0.01 | 51 | 1014.7 | |
| 20260902201527 | 77 | 0.0 | 0.0 | 0.00 | 0.01 | 0.01 | 51 | 1014.7 | |
| 20260902201026 | 77 | 0.0 | 0.0 | 0.00 | 0.01 | 0.01 | 51 | 1014.8 | |
| 20260902200527 | 77 | 0.0 | 0.0 | 0.00 | 0.01 | 0.01 | 50 | 1014.8 | |
| 20260902200040 | 77 | 0.0 | 0.0 | 0.00 | 0.01 | 0.01 | 50 | 1014.8 | |
| 20260902195520 | 76 | 0.0 | 0.0 | 0.00 | 0.01 | 0.01 | 51 | 1015.0 | |
| 20260902195019 | 76 | 0.0 | 0.0 | 0.00 | 0.01 | 0.01 | 51 | 1015.0 | |
| 20260902194522 | 76 | 0.0 | 0.0 | 0.00 | 0.01 | 0.01 | 51 | 1015.0 | |
| 20260902194017 | 76 | 0.0 | 0.0 | 0.00 | 0.01 | 0.01 | 51 | 1015.0 | |
| 20260902193516 | 77 | 0.0 | 0.0 | 0.00 | 0.01 | 0.01 | 51 | 1015.1 | |
| 20260902193015 | 77 | 0.0 | 0.0 | 0.00 | 0.01 | 0.01 | 50 | 1015.1 | |
| 20260902192512 | 77 | 0.0 | 0.0 | 0.00 | 0.01 | 0.01 | 50 | 1015.1 | |
| 20260902192012 | 76 | 0.0 | 0.0 | 0.00 | 0.01 | 0.01 | 50 | 1015.1 | |
| 20260902191509 | 76 | 0.0 | 0.0 | 0.00 | 0.01 | 0.01 | 50 | 1015.2 | |
| 20260902191007 | 76 | 0.0 | 0.0 | 0.00 | 0.01 | 0.01 | 49 | 1015.2 | |
| 20260902190507 | 76 | 0.0 | 0.0 | 0.00 | 0.01 | 0.01 | 49 | 1015.2 | |
| 20260902190005 | 76 | 0.0 | 0.0 | 0.00 | 0.01 | 0.01 | 48 | 1015.2 | |
| 20260902185503 | 76 | 0.0 | 0.0 | 0.00 | 0.01 | 0.01 | 48 | 1015.3 | |
| 20260902185004 | 75 | 0.0 | 0.0 | 0.00 | 0.01 | 0.01 | 48 | 1015.3 | |
| 20260902184502 | 76 | 0.0 | 0.0 | 0.00 | 0.01 | 0.01 | 49 | 1015.3 | |
| 20260902184101 | 76 | 0.0 | 0.0 | 0.00 | 0.01 | 0.01 | 49 | 1015.2 | |
| 20260902183602 | 76 | 0.0 | 0.0 | 0.00 | 0.01 | 0.01 | 48 | 1015.3 | |
| 20260902183107 | 75 | 0.0 | 0.0 | 0.00 | 0.01 | 0.01 | 48 | 1015.3 | |
| 20260902182555 | 75 | 0.0 | 0.0 | 0.00 | 0.01 | 0.01 | 48 | 1015.4 | |
| 20260902182054 | 75 | 0.0 | 0.0 | 0.00 | 0.01 | 0.01 | 48 | 1015.4 | |
| 20260902181550 | 74 | 0.0 | 0.0 | 0.00 | 0.01 | 0.01 | 48 | 1015.4 | |
| 20260902181149 | 74 | 0.0 | 0.0 | 0.00 | 0.01 | 0.01 | 48 | 1015.4 | |
| 20260902170533 | 74 | 360 | 0.0 | 0.0 | 0.00 | 0.01 | 0.01 | 51 | 1015.3 |
| 20260902170030 | 74 | 360 | 0.0 | 0.0 | 0.00 | 0.01 | 0.01 | 50 | 1015.3 |
| 20260902165528 | 74 | 360 | 0.0 | 0.0 | 0.00 | 0.01 | 0.01 | 50 | 1015.2 |
| 20260902165026 | 74 | 360 | 0.0 | 0.0 | 0.00 | 0.01 | 0.01 | 50 | 1015.2 |
| 20260902164510 | 73 | 360 | 0.0 | 0.0 | 0.00 | 0.01 | 0.01 | 50 | 1015.2 |
| 20260902164005 | 73 | 360 | 0.0 | 0.0 | 0.00 | 0.01 | 0.01 | 49 | 1015.2 |
| 20260902163503 | 73 | 360 | 0.0 | 0.0 | 0.00 | 0.01 | 0.01 | 49 | 1015.1 |
| 20260902163102 | 72 | 360 | 0.0 | 0.0 | 0.00 | 0.01 | 0.01 | 48 | 1015.2 |
| 20260902160635 | 70 | 360 | 0.0 | 0.0 | 0.00 | 0.01 | 0.01 | 37 | 1015.2 |
| 20260902150039 | 63 | 360 | 0.0 | 0.0 | 0.00 | 0.01 | 0.01 | 100 | 1015.5 |
| 20260902145024 | 63 | 360 | 0.0 | 0.0 | 0.00 | 0.01 | 0.01 | 100 | 1015.4 |
| 20260902144522 | 62 | 360 | 0.0 | 0.0 | 0.00 | 0.01 | 0.01 | 100 | 1015.3 |
| 20260902144024 | 62 | 360 | 0.0 | 0.0 | 0.00 | 0.01 | 0.01 | 100 | 1015.3 |
| 20260902143520 | 61 | 360 | 0.0 | 0.0 | 0.00 | 0.01 | 0.01 | 100 | 1015.3 |
| 20260902143018 | 60 | 360 | 0.0 | 0.0 | 0.00 | 0.01 | 0.01 | 100 | 1015.3 |
| 20260902142517 | 60 | 360 | 0.0 | 0.0 | 0.00 | 0.01 | 0.01 | 100 | 1015.3 |
| 20260902142016 | 60 | 360 | 0.0 | 0.0 | 0.00 | 0.01 | 0.01 | 100 | 1015.3 |
| 20260902141518 | 59 | 360 | 0.0 | 0.0 | 0.00 | 0.01 | 0.01 | 100 | 1015.3 |
| 20260902141015 | 59 | 360 | 0.0 | 0.0 | 0.00 | 0.01 | 0.01 | 100 | 1015.2 |
| 20260902140511 | 58 | 360 | 0.0 | 0.0 | 0.00 | 0.01 | 0.01 | 100 | 1015.2 |
| 20260902140011 | 58 | 360 | 0.0 | 0.0 | 0.00 | 0.01 | 0.01 | 100 | 1015.1 |
| 20260902135507 | 58 | 360 | 0.0 | 0.0 | 0.00 | 0.01 | 0.01 | 100 | 1015.0 |
| 20260902135006 | 57 | 360 | 0.0 | 0.0 | 0.00 | 0.01 | 0.01 | 100 | 1014.9 |
| 20260902134506 | 57 | 360 | 0.0 | 0.0 | 0.00 | 0.01 | 0.01 | 100 | 1014.8 |
| 20260902134004 | 57 | 360 | 0.0 | 0.0 | 0.00 | 0.01 | 0.01 | 100 | 1014.9 |
| 20260902133502 | 56 | 360 | 0.0 | 0.0 | 0.00 | 0.01 | 0.01 | 100 | 1014.9 |
| 20260902133001 | 56 | 360 | 0.0 | 0.0 | 0.00 | 0.01 | 0.01 | 100 | 1014.9 |
| 20260902132603 | 56 | 360 | 0.0 | 0.0 | 0.00 | 0.01 | 0.01 | 100 | 1014.8 |
| 20260902132058 | 56 | 360 | 0.0 | 0.0 | 0.00 | 0.01 | 0.01 | 100 | 1014.8 |
| 20260902131605 | 56 | 360 | 0.0 | 0.0 | 0.00 | 0.01 | 0.01 | 100 | 1014.8 |
| 20260902131055 | 56 | 360 | 0.0 | 0.0 | 0.00 | 0.01 | 0.01 | 100 | 1014.8 |
| 20260902130553 | 55 | 360 | 0.0 | 0.0 | 0.00 | 0.01 | 0.01 | 100 | 1014.8 |
| 20260902130053 | 55 | 360 | 0.0 | 0.0 | 0.00 | 0.01 | 0.01 | 100 | 1014.8 |
| 20260902125550 | 56 | 360 | 0.0 | 0.0 | 0.00 | 0.01 | 0.01 | 100 | 1014.8 |
| 20260902125049 | 56 | 360 | 0.0 | 0.0 | 0.00 | 0.01 | 0.01 | 100 | 1014.8 |
| 20260902124558 | 56 | 360 | 0.0 | 0.0 | 0.00 | 0.01 | 0.01 | 100 | 1014.8 |
| 20260902124050 | 57 | 360 | 0.0 | 0.0 | 0.00 | 0.01 | 0.01 | 100 | 1014.7 |
| 20260902123545 | 57 | 360 | 0.0 | 0.0 | 0.00 | 0.01 | 0.01 | 100 | 1014.7 |
| 20260902123046 | 57 | 360 | 0.0 | 0.0 | 0.01 | 0.01 | 0.01 | 100 | 1014.7 |
| 20260902122543 | 57 | 360 | 0.0 | 0.0 | 0.01 | 0.01 | 0.01 | 100 | 1014.7 |
| 20260902122040 | 57 | 360 | 0.0 | 0.0 | 0.01 | 0.01 | 0.01 | 100 | 1014.7 |
| 20260902121539 | 57 | 360 | 0.0 | 0.0 | 0.01 | 0.01 | 0.01 | 100 | 1014.6 |
| 20260902121038 | 57 | 360 | 0.0 | 0.0 | 0.01 | 0.01 | 0.01 | 100 | 1014.7 |
| 20260902120536 | 56 | 360 | 0.0 | 0.0 | 0.01 | 0.01 | 0.01 | 100 | 1014.7 |
| 20260902120035 | 56 | 360 | 0.0 | 0.0 | 0.01 | 0.01 | 0.01 | 100 | 1014.6 |
| 20260902115533 | 56 | 360 | 0.0 | 0.0 | 0.01 | 0.01 | 0.01 | 100 | 1014.6 |
| 20260902115032 | 56 | 360 | 0.0 | 0.0 | 0.01 | 0.01 | 0.01 | 100 | 1014.6 |
| 20260902114535 | 56 | 360 | 0.0 | 0.0 | 0.01 | 0.01 | 0.01 | 100 | 1014.6 |
| 20260902114029 | 56 | 360 | 0.0 | 0.0 | 0.01 | 0.01 | 0.01 | 100 | 1014.7 |
| 20260902113528 | 56 | 360 | 0.0 | 0.0 | 0.01 | 0.01 | 0.01 | 100 | 1014.8 |
| 20260902113027 | 56 | 360 | 0.0 | 0.0 | 0.00 | 0.00 | 0.00 | 100 | 1014.8 |
| 20260902112525 | 55 | 360 | 0.0 | 0.0 | 0.00 | 0.00 | 0.00 | 100 | 1014.8 |
| 20260902112024 | 55 | 360 | 0.0 | 0.0 | 0.00 | 0.00 | 0.00 | 100 | 1014.7 |
| 20260902111531 | 55 | 360 | 0.0 | 0.0 | 0.00 | 0.00 | 0.00 | 100 | 1014.6 |
| 20260902111025 | 55 | 360 | 0.0 | 0.0 | 0.00 | 0.00 | 0.00 | 100 | 1014.6 |
| 20260902110520 | 55 | 360 | 0.0 | 0.0 | 0.00 | 0.00 | 0.00 | 100 | 1014.6 |
| 20260902110018 | 55 | 360 | 0.0 | 0.0 | 0.00 | 0.00 | 0.00 | 100 | 1014.6 |
| 20260902105519 | 55 | 360 | 0.0 | 0.0 | 0.00 | 0.00 | 0.00 | 100 | 1014.6 |
| 20260902105014 | 55 | 360 | 0.0 | 0.0 | 0.00 | 0.00 | 0.00 | 100 | 1014.7 |
| 20260902104515 | 55 | 360 | 0.0 | 0.0 | 0.00 | 0.00 | 0.00 | 100 | 1014.6 |
| 20260902104013 | 55 | 360 | 0.0 | 0.0 | 0.00 | 0.00 | 0.00 | 100 | 1014.6 |
| 20260902103510 | 55 | 360 | 0.0 | 0.0 | 0.00 | 0.00 | 0.00 | 100 | 1014.7 |
| 20260902103009 | 55 | 360 | 0.0 | 0.0 | 0.00 | 0.00 | 0.00 | 100 | 1014.7 |
| 20260902102509 | 55 | 360 | 0.0 | 0.0 | 0.00 | 0.00 | 0.00 | 100 | 1014.7 |
| 20260902102006 | 56 | 360 | 0.0 | 0.0 | 0.00 | 0.00 | 0.00 | 100 | 1014.7 |
| 20260902101503 | 56 | 360 | 0.0 | 0.0 | 0.00 | 0.00 | 0.00 | 100 | 1014.7 |
| 20260902101003 | 56 | 360 | 0.0 | 0.0 | 0.00 | 0.00 | 0.00 | 100 | 1014.6 |
| 20260902100501 | 56 | 360 | 0.0 | 0.0 | 0.00 | 0.00 | 0.00 | 100 | 1014.7 |
| 20260902100100 | 56 | 360 | 0.0 | 0.0 | 0.00 | 0.00 | 0.00 | 100 | 1014.7 |
| 20260902095603 | 56 | 360 | 0.0 | 0.0 | 0.00 | 0.00 | 0.00 | 100 | 1014.7 |
| 20260902095056 | 57 | 360 | 0.0 | 0.0 | 0.00 | 0.00 | 0.00 | 100 | 1014.8 |
| 20260902094556 | 57 | 360 | 0.0 | 0.0 | 0.00 | 0.00 | 0.00 | 100 | 1014.8 |
| 20260902094054 | 57 | 360 | 0.0 | 0.0 | 0.00 | 0.00 | 0.00 | 100 | 1014.7 |
| 20260902093555 | 57 | 360 | 0.0 | 0.0 | 0.00 | 0.00 | 0.00 | 100 | 1014.7 |
| 20260902093051 | 57 | 360 | 0.0 | 0.0 | 0.00 | 0.00 | 0.00 | 100 | 1014.6 |
| 20260902092553 | 57 | 360 | 0.0 | 0.0 | 0.00 | 0.00 | 0.00 | 100 | 1014.6 |
| 20260902092049 | 57 | 360 | 0.0 | 0.0 | 0.00 | 0.00 | 0.00 | 100 | 1014.7 |
| 20260902091550 | 57 | 360 | 0.0 | 0.0 | 0.00 | 0.00 | 0.00 | 100 | 1014.8 |
| 20260902091045 | 57 | 360 | 0.0 | 0.0 | 0.00 | 0.00 | 0.00 | 100 | 1014.8 |
| 20260902090547 | 57 | 360 | 0.0 | 0.0 | 0.00 | 0.00 | 0.00 | 100 | 1014.9 |
| 20260902090042 | 57 | 360 | 0.0 | 0.0 | 0.00 | 0.00 | 0.00 | 100 | 1014.9 |
| 20260902085545 | 57 | 360 | 0.0 | 0.0 | 0.00 | 0.00 | 0.00 | 100 | 1014.9 |
| 20260902085040 | 57 | 360 | 0.0 | 0.0 | 0.00 | 0.00 | 0.00 | 100 | 1014.9 |
| 20260902084538 | 57 | 360 | 0.0 | 0.0 | 0.00 | 0.00 | 0.00 | 100 | 1014.9 |
| 20260902084037 | 57 | 360 | 0.0 | 0.0 | 0.00 | 0.00 | 0.00 | 100 | 1014.9 |
| 20260902083534 | 57 | 360 | 0.0 | 0.0 | 0.00 | 0.00 | 0.00 | 100 | 1014.9 |
| 20260902083034 | 57 | 360 | 0.0 | 0.0 | 0.00 | 0.00 | 0.00 | 100 | 1014.9 |
| 20260902082532 | 57 | 360 | 0.0 | 0.0 | 0.00 | 0.00 | 0.00 | 100 | 1014.8 |
| 20260902082031 | 57 | 360 | 0.0 | 0.0 | 0.00 | 0.00 | 0.00 | 100 | 1014.8 |
| 20260902081529 | 58 | 360 | 0.0 | 0.0 | 0.00 | 0.00 | 0.00 | 100 | 1014.8 |
| 20260902081028 | 58 | 360 | 0.0 | 0.0 | 0.00 | 0.00 | 0.00 | 100 | 1014.7 |
| 20260902080526 | 58 | 360 | 0.0 | 0.0 | 0.00 | 0.00 | 0.00 | 100 | 1014.8 |
| 20260902080026 | 58 | 360 | 0.0 | 0.0 | 0.00 | 0.00 | 0.00 | 100 | 1014.8 |
| 20260902075524 | 58 | 360 | 0.0 | 0.0 | 0.00 | 0.00 | 0.00 | 100 | 1014.8 |
| 20260902075021 | 58 | 360 | 0.0 | 0.0 | 0.00 | 0.00 | 0.00 | 100 | 1014.8 |
| 20260902074519 | 58 | 360 | 0.0 | 0.0 | 0.00 | 0.00 | 0.00 | 100 | 1014.8 |
| 20260902074018 | 58 | 360 | 0.0 | 0.0 | 0.00 | 0.00 | 0.00 | 100 | 1014.8 |
| 20260902073520 | 58 | 360 | 0.0 | 0.0 | 0.00 | 0.00 | 0.00 | 100 | 1014.8 |
| 20260902073019 | 58 | 360 | 0.0 | 0.0 | 0.00 | 0.00 | 0.00 | 100 | 1014.7 |
| 20260902072513 | 58 | 360 | 0.0 | 0.0 | 0.00 | 0.00 | 0.00 | 100 | 1014.8 |
| 20260902072013 | 58 | 360 | 0.0 | 0.0 | 0.00 | 0.00 | 0.00 | 100 | 1014.6 |
| 20260902071517 | 58 | 360 | 0.0 | 0.0 | 0.00 | 0.00 | 0.00 | 100 | 1014.7 |
| 20260902071010 | 58 | 360 | 0.0 | 0.0 | 0.00 | 0.00 | 0.00 | 100 | 1014.6 |
| 20260902070511 | 59 | 360 | 0.0 | 0.0 | 0.00 | 0.00 | 0.00 | 100 | 1014.6 |
| 20260902070008 | 59 | 360 | 0.0 | 0.0 | 0.00 | 0.00 | 0.00 | 100 | 1014.6 |
| 20260902065506 | 59 | 360 | 0.0 | 0.0 | 0.00 | 0.00 | 0.00 | 100 | 1014.5 |
| 20260902065005 | 59 | 360 | 0.0 | 0.0 | 0.00 | 0.00 | 0.00 | 100 | 1014.5 |
| 20260902064503 | 59 | 360 | 0.0 | 0.0 | 0.00 | 0.00 | 0.00 | 100 | 1014.6 |
| 20260902064002 | 59 | 360 | 0.0 | 0.0 | 0.00 | 0.00 | 0.00 | 100 | 1014.5 |
| 20260902063600 | 59 | 360 | 0.0 | 0.0 | 0.00 | 0.00 | 0.00 | 100 | 1014.4 |
| 20260902063059 | 59 | 360 | 0.0 | 0.0 | 0.00 | 0.00 | 0.00 | 100 | 1014.3 |
| 20260902062600 | 59 | 360 | 0.0 | 0.0 | 0.00 | 0.00 | 0.00 | 100 | 1014.2 |
| 20260902062055 | 59 | 360 | 0.0 | 0.0 | 0.00 | 0.00 | 0.00 | 100 | 1014.2 |
| 20260902061607 | 59 | 360 | 0.0 | 0.0 | 0.00 | 0.00 | 0.00 | 100 | 1014.1 |
| 20260902061053 | 59 | 360 | 0.0 | 0.0 | 0.00 | 0.00 | 0.00 | 100 | 1014.1 |
| 20260902060551 | 60 | 360 | 0.0 | 0.0 | 0.00 | 0.00 | 0.00 | 100 | 1014.1 |
| 20260902060050 | 60 | 360 | 0.0 | 0.0 | 0.00 | 0.00 | 0.00 | 100 | 1014.1 |
| 20260902055548 | 60 | 360 | 0.0 | 0.0 | 0.00 | 0.00 | 0.00 | 100 | 1014.1 |
| 20260902055047 | 60 | 360 | 0.0 | 0.0 | 0.00 | 0.00 | 0.00 | 100 | 1014.1 |
| 20260902054550 | 60 | 360 | 0.0 | 0.0 | 0.00 | 0.00 | 0.00 | 100 | 1014.1 |
| 20260902054044 | 60 | 360 | 0.0 | 0.0 | 0.00 | 0.00 | 0.00 | 100 | 1014.2 |
| 20260902053542 | 60 | 360 | 0.0 | 0.0 | 0.00 | 0.00 | 0.00 | 100 | 1014.2 |
| 20260902053043 | 60 | 360 | 0.0 | 0.0 | 0.00 | 0.00 | 0.00 | 100 | 1014.2 |
| 20260902052540 | 60 | 360 | 0.0 | 0.0 | 0.00 | 0.00 | 0.00 | 100 | 1014.2 |
| 20260902052038 | 60 | 360 | 0.0 | 0.0 | 0.00 | 0.00 | 0.00 | 100 | 1014.1 |
| 20260902051537 | 60 | 360 | 0.0 | 0.0 | 0.00 | 0.00 | 0.00 | 100 | 1014.2 |
| 20260902051035 | 61 | 360 | 0.0 | 0.0 | 0.00 | 0.00 | 0.00 | 100 | 1014.2 |
| 20260902050534 | 61 | 360 | 0.0 | 0.0 | 0.00 | 0.00 | 0.00 | 100 | 1014.2 |
| 20260902050032 | 61 | 360 | 0.0 | 0.0 | 0.00 | 0.00 | 0.00 | 100 | 1014.2 |
| 20260902045533 | 61 | 360 | 0.0 | 0.0 | 0.00 | 0.00 | 0.00 | 100 | 1014.2 |
| 20260902045029 | 61 | 360 | 0.0 | 0.0 | 0.00 | 0.00 | 0.00 | 100 | 1014.2 |
| 20260902044527 | 61 | 360 | 0.0 | 0.0 | 0.00 | 0.00 | 0.00 | 100 | 1014.2 |
| 20260902044027 | 62 | 360 | 0.0 | 0.0 | 0.00 | 0.00 | 0.00 | 100 | 1014.1 |
| 20260902043524 | 62 | 0.0 | 0.0 | 0.00 | 0.00 | 0.00 | 100 | 1014.0 | |
| 20260902043027 | 62 | 360 | 0.0 | 0.0 | 0.00 | 0.00 | 0.00 | 100 | 1014.0 |
| 20260902042521 | 62 | 360 | 0.0 | 0.0 | 0.00 | 0.00 | 0.00 | 100 | 1013.9 |
| 20260902042021 | 63 | 360 | 0.0 | 0.0 | 0.00 | 0.00 | 0.00 | 100 | 1013.9 |
| 20260902041518 | 63 | 360 | 0.0 | 0.0 | 0.00 | 0.00 | 0.00 | 100 | 1013.9 |
| 20260902041017 | 63 | 360 | 0.0 | 0.0 | 0.00 | 0.00 | 0.00 | 100 | 1013.8 |
| 20260902040518 | 63 | 0.0 | 0.0 | 0.00 | 0.00 | 0.00 | 100 | 1013.9 | |
| 20260902040014 | 63 | 0.0 | 0.0 | 0.00 | 0.00 | 0.00 | 100 | 1013.7 | |
| 20260902035512 | 64 | 0.0 | 0.0 | 0.00 | 0.00 | 0.00 | 100 | 1013.7 | |
| 20260902035011 | 64 | 0.0 | 0.0 | 0.00 | 0.00 | 0.00 | 100 | 1013.6 | |
| 20260902034510 | 64 | 0.0 | 0.0 | 0.00 | 0.00 | 0.00 | 100 | 1013.6 | |
| 20260902034008 | 64 | 0.0 | 0.0 | 0.00 | 0.00 | 0.00 | 100 | 1013.5 | |
| 20260902033507 | 64 | 0.0 | 0.0 | 0.00 | 0.00 | 0.00 | 100 | 1013.6 | |
| 20260902033005 | 64 | 0.0 | 0.0 | 0.00 | 0.00 | 0.00 | 100 | 1013.4 | |
| 20260902032504 | 65 | 0.0 | 0.0 | 0.00 | 0.00 | 0.00 | 100 | 1013.4 | |
| 20260902032002 | 65 | 0.0 | 0.0 | 0.00 | 0.00 | 0.00 | 100 | 1013.4 | |
| 20260902031502 | 65 | 0.0 | 0.0 | 0.00 | 0.00 | 0.00 | 100 | 1013.4 | |
| 20260902031059 | 65 | 0.0 | 0.0 | 0.00 | 0.00 | 0.00 | 100 | 1013.3 | |
| 20260902031002 | 65 | 0.0 | 0.0 | 0.00 | 0.00 | 0.00 | 100 | 1013.3 | |
| 20260902030602 | 65 | 0.0 | 0.0 | 0.00 | 0.00 | 0.00 | 100 | 1013.2 | |
| 20260902030056 | 65 | 0.0 | 0.0 | 0.00 | 0.00 | 0.00 | 100 | 1013.2 | |
| 20260902025555 | 66 | 0.0 | 0.0 | 0.00 | 0.00 | 0.00 | 100 | 1013.2 | |
| 20260902025055 | 66 | 0.0 | 0.0 | 0.00 | 0.00 | 0.00 | 100 | 1013.1 | |
| 20260902024552 | 66 | 0.0 | 0.0 | 0.00 | 0.00 | 0.00 | 100 | 1013.0 | |
| 20260902024050 | 66 | 0.0 | 0.0 | 0.00 | 0.00 | 0.00 | 100 | 1012.9 |